User: anonymous   Login
Location: Berg
(47.2344°N, 9.5296°E)
Time: 21:22:29
(UTC+00:00)
Language:

Cosmos 1844 - Orbit

View from above orbital plane
View from above orbital plane
View from above satellite
View from above satellite

Ground track
Ground track

The orbit data is extracted from the following two-line orbital elements,

1 17973U 87041A   21104.55907146 -.00000252  00000-0 -10623-3 0  9998
2 17973  70.8974 208.4059 0031706 193.2503 166.7789 14.14111704750484
Epoch (UTC): 14 April 2021 13:25:03
Eccentricity: 0.0031706
inclination: 70.8974°
perigee height: 822 km
apogee height: 868 km
right ascension of ascending node: 208.4059°
argument of perigee: 193.2503°
revolutions per day: 14.14111704
mean anomaly at epoch: 166.7789°
orbit number at epoch: 75048

The dashed part of the orbit path shows where the satellite is in the earth's shadow,  

DLR